This is the latest recevied weather packets stored in our database for station/object IK6IHU-3. If no packets are shown the sender has not sent any weather packets the latest 10 day(s).
| Time | Temp. | Humidity | Pressure | Rain* | Wind** | Luminosity | Snow |
|---|---|---|---|---|---|---|---|
| 1777643894 | 13.33° C | 39% | 1022.6 hPa | 0 mm | - | 0 W/m² | - |
| 1777643834 | 13.33° C | 40% | 1022.7 hPa | 0 mm | - | 0 W/m² | - |
| 1777643774 | 13.33° C | 39% | 1022.7 hPa | 0 mm | - | 0 W/m² | - |
| 1777643714 | 13.33° C | 38% | 1022.7 hPa | 0 mm | - | 0 W/m² | - |
| 1777643654 | 13.33° C | 40% | 1023 hPa | 0 mm | - | 0 W/m² | - |
| 1777643594 | 13.33° C | 40% | 1022.9 hPa | 0 mm | - | 0 W/m² | - |
| 1777643534 | 13.33° C | 39% | 1022.7 hPa | 0 mm | - | 0 W/m² | - |
| 1777643414 | 13.33° C | 40% | 1022.8 hPa | 0 mm | - | 0 W/m² | - |
| 1777643293 | 13.33° C | 41% | 1022.9 hPa | 0 mm | - | 0 W/m² | - |
| 1777643233 | 13.33° C | 42% | 1022.8 hPa | 0 mm | - | 0 W/m² | - |
| 1777643174 | 12.78° C | 39% | 1022.8 hPa | 0 mm | - | 0 W/m² | - |
| 1777642994 | 12.78° C | 41% | 1022.8 hPa | 0 mm | - | 0 W/m² | - |
| 1777642934 | 13.33° C | 44% | 1022.9 hPa | 0 mm | - | 0 W/m² | - |
| 1777642874 | 13.33° C | 42% | 1022.8 hPa | 0 mm | - | 0 W/m² | - |
| 1777642814 | 13.89° C | 47% | 1022.8 hPa | 0 mm | - | 0 W/m² | - |
| 1777642754 | 13.33° C | 47% | 1022.8 hPa | 0 mm | - | 0 W/m² | - |
| 1777642694 | 13.33° C | 46% | 1022.9 hPa | 0 mm | - | 0 W/m² | - |
| 1777642634 | 13.33° C | 45% | 1023 hPa | 0 mm | - | 0 W/m² | - |
| 1777642574 | 12.78° C | 45% | 1022.9 hPa | 0 mm | - | 0 W/m² | - |
| 1777642514 | 13.33° C | 45% | 1023 hPa | 0 mm | - | 0 W/m² | - |
| 1777642454 | 13.33° C | 44% | 1023 hPa | 0 mm | - | 0 W/m² | - |
| 1777642394 | 13.33° C | 44% | 1022.8 hPa | 0 mm | - | 0 W/m² | - |
| 1777642334 | 13.33° C | 43% | 1023.3 hPa | 0 mm | - | 0 W/m² | - |
| 1777642274 | 13.33° C | 45% | 1022.9 hPa | 0 mm | - | 0 W/m² | - |
| 1777642214 | 13.33° C | 43% | 1022.9 hPa | 0 mm | - | 0 W/m² | - |
* Rain latest hour (hover to see other rain measurements)
** Current wind speed in m/s (hover to see current wind gust speed)